San Jose, Costa Rica

10:06 AM CST on July 24, 2017 (GMT -0600)
Juan Santamaria International

Weather History for MROC - January, 2013

Change the Weather History Date:

Wednesday, January 2, 2013

  Actual Average Record
Temperature  
Mean Temperature 74 °F -  
Max Temperature 84 °F 80 °F 86 °F (2002)
Min Temperature 65 °F 63 °F 62 °F (1997)
Cooling Degree Days 10    
Growing Degree Days 24 (Base 50)    
Moisture  
Dew Point 56 °F    
Average Humidity 52    
Maximum Humidity 68    
Minimum Humidity 29    
Precipitation  
Precipitation 0.00 in 0.01 in - ()
Sea Level Pressure  
Sea Level Pressure 29.91 in    
Wind  
Wind Speed 9 mph ()    
Max Wind Speed 16 mph    
Max Gust Speed 23 mph    
Visibility 9.1 miles    
Events      
Averages and records for this station are not official NWS values.
T = Trace of Precipitation, MM = Missing Value Source: Averaged Metar Reports

Daily Weather History Graph

Daily Weather History Graph

Search for Another Location

Airport or City:

Trip Planner

Search our weather history database for the weather conditions in past years. The results will help you decide how hot, cold, wet, or windy it might be!

Date:

Astronomy

Jan. 02, 2013 Rise Set
Actual Time 5:54 AM CST 5:27 PM CST
Civil Twilight 5:31 AM CST 5:50 PM CST
Nautical Twilight 5:05 AM CST 6:16 PM CST
Astronomical Twilight 4:39 AM CST 6:43 PM CST
Moon 9:55 PM CST (1/2) 9:33 AM CST (1/2)
Length of Visible Light 12h 18m
Length of Day
11h 33m
Waning Gibbous, 75% of the Moon is Illuminated
Jan 2
Waning Gibbous
Jan 4
Last Quarter
Jan 11
New
Jan 18
First Quarter
Jan 26
Full

Hourly Weather History & Observations

Time (CST) Temp. Heat Index Dew Point Humidity Pressure Visibility Wind Dir Wind Speed Gust Speed Precip Events Conditions
12:00 AM 69 °F - 54 °F 50% 29.79 in 12 mi ESE 11.5 mph - -   Clear
12:00 AM 69.8 °F - 53.6 °F 56% 29.96 in - ESE 11.5 mph - N/A   Clear
1:00 AM 68.0 °F - 55.4 °F 64% 29.95 in - East 6.9 mph - N/A   Volcanic Ash
2:00 AM 68.0 °F - 55.4 °F 64% 29.93 in - ESE 9.2 mph - N/A   Clear
3:00 AM 66 °F - 54 °F 57% 29.77 in 12 mi NE 6.9 mph - -  
3:00 AM 66.2 °F - 55.4 °F 68% 29.93 in - NE 6.9 mph - N/A   Clear
4:00 AM 68.0 °F - 55.4 °F 64% 29.93 in - ENE 6.9 mph - N/A   Clear
5:00 AM 68.0 °F - 55.4 °F 64% 29.94 in - ESE 10.4 mph - N/A   Clear
6:00 AM 69 °F - 55 °F 51% 29.82 in 12 mi ESE 8.1 mph - -   Clear
6:00 AM 69.8 °F - 55.4 °F 60% 29.96 in - ESE 8.1 mph - N/A   Clear
7:00 AM 71.6 °F - 55.4 °F 57% 29.97 in - ESE 16.1 mph - N/A   Clear
8:00 AM 75.2 °F - 55.4 °F 50% 29.99 in - ESE 11.5 mph 23.0 mph N/A   Clear
9:00 AM 78 °F - 52 °F 29% 29.83 in 12 mi ESE 13.8 mph - -  
9:00 AM 78.8 °F - 51.8 °F 39% - - ESE 13.8 mph - N/A   Clear
10:00 AM 80.6 °F - 51.8 °F 37% 29.99 in - East 12.7 mph - N/A   Clear
11:00 AM 82.4 °F 81.7 °F 55.4 °F 39% 29.98 in - East 10.4 mph 21.9 mph N/A   Clear
12:00 PM 83 °F - 56 °F 29% 29.79 in 12 mi ESE 10.4 mph - -  
12:00 PM 82.4 °F 81.7 °F 55.4 °F 39% 29.95 in - ESE 10.4 mph - N/A   Clear
1:00 PM 82.4 °F 82.0 °F 57.2 °F 42% 29.92 in 6.2 mi East 11.5 mph - N/A   Partly Cloudy
2:00 PM 82.4 °F 82.0 °F 57.2 °F 42% 29.90 in 6.2 mi East 11.5 mph - N/A   Partly Cloudy
3:00 PM 79 °F - 58 °F 38% 29.73 in 12 mi ESE 8.1 mph - -   Scattered Clouds
3:00 PM 78.8 °F - 57.2 °F 47% 29.90 in 6.2 mi ESE 8.1 mph - N/A   Partly Cloudy
4:00 PM 77.0 °F - 59.0 °F 54% 29.91 in 6.2 mi SE 5.8 mph - N/A   Scattered Clouds
5:00 PM 75.2 °F - 59.0 °F 57% 29.92 in 6.2 mi East 9.2 mph - N/A   Mostly Cloudy
6:00 PM 73 °F - 61 °F 57% 29.80 in 9 mi ESE 3.5 mph - -   Overcast
6:00 PM 73.4 °F - 60.8 °F 65% 29.94 in 6.2 mi ESE 3.5 mph - N/A   Mostly Cloudy
7:00 PM 71.6 °F - 59.0 °F 64% 29.98 in 6.2 mi East 5.8 mph - N/A   Mostly Cloudy
8:00 PM 69.8 °F - 57.2 °F 64% 30.00 in - ENE 3.5 mph - N/A   Clear
9:00 PM 71 °F - 55 °F 47% 29.83 in 12 mi East 9.2 mph - -   Mostly Cloudy
9:00 PM 71.6 °F - 55.4 °F 57% 30.02 in - East 9.2 mph - N/A   Clear
10:00 PM 69.8 °F - 55.4 °F 60% 30.02 in - East 9.2 mph - N/A   Clear
11:00 PM 69.8 °F - 55.4 °F 60% 30.01 in - ESE 9.2 mph - N/A   Clear